Regional Weather Roundup
Issued by NWS

Home | Current Version | Previous Version | Graphics & Text | Print | Product List | Glossary On
Versions: 1 2 3 4 5 6 7 8 9 10 11 12 13 14 15 16 17 18 19 20 21 22 23 24 25 26 27 28 29 30 31 32 33 34 35 36 37 38 39 40 41 42 43 44 45 46 47 48 49 50
000
ASUS43 KLOT 012306
RWRIL

ILLINOIS REGIONAL WEATHER ROUNDUP
NATIONAL WEATHER SERVICE CHICAGO/ROMEOVILLE IL
600 PM CDT FRI AUG 01 2014

NOTE: "FAIR" INDICATES FEW OR NO CLOUDS BELOW 12,000 FEET WITH NO
SIGNIFICANT WEATHER AND/OR OBSTRUCTIONS TO VISIBILITY.

* THESE STATIONS ARE NOT UNDER NWS QUALITY CONTROL. THEY ALSO MAY NOT
  REPORT WEATHER SUCH AS PRECIPITATION OR FOG.

ILZ001-002-007-009-015-016-024-020000-
NORTHWEST ILLINOIS

CITY           SKY/WX    TMP DP  RH WIND       PRES   REMARKS
MOLINE         MOSUNNY   77  66  68 S5        30.04S
STERLING*      MOSUNNY   79  63  57 SW3       30.06S HX  80
$$

ILZ003-004-008-010-011-017-018-020000-
NORTH CENTRAL ILLINOIS

CITY           SKY/WX    TMP DP  RH WIND       PRES   REMARKS
ROCKFORD       MOSUNNY   83  58  42 VRB5      30.05F HX  83
$$

ILZ005-006-012>014-019>023-020000-
NORTHEAST ILLINOIS

CITY           SKY/WX    TMP DP  RH WIND       PRES   REMARKS
CHICAGO-OHARE  PTSUNNY   76  58  53 S10       30.07R
CHICAGO-MIDWAY CLOUDY    77  59  53 S7        30.08R
AURORA         CLOUDY    69  56  62 S9        30.07S THUNDER
WAUKEGAN       PTSUNNY   74  59  59 SE10      30.05F
DUPAGE AIRPORT LGT RAIN  74  59  59 N3        30.07S
KANKAKEE*      CLOUDY    68  61  79 E3        30.10S
WHEELING       PTSUNNY   78  63  59 SE14      30.07S HX  80
NORTHERLY ISL    N/A     74  59  59 S3          N/A
$$

LMZ740>746-020000-
SOUTHERN LAKE MICHIGAN

STATION/POSITION SKY/WX   TEMP    WIND        PRES    VSBY  WAVE
                          AIR SEA DIR/SP/G                  HT/PER
                          (F)     (DEG/KT/KT) (MB)    (MI)  (FT/S)
SOUTHERN BUOY              68 66  170/ 10/ 10 1018.1S         0
WAUKEGAN HARBOR            71     160/ 16/ 17   N/A
HARRISON CRIB              70     180/  8/  9   N/A
BURNHAM HARBOR             76     150/  4/  7   N/A
CALUMET HARBOR             76     180/  7/ 11 1017.2R
BURNS HARBOR               77     230/  6/  8   N/A
MICHIGAN CITY              75     250/  7/  9   N/A
MICHIGAN CITY 6N           72 70  280/  2/  4   N/A           1
ST. JOSEPH                 71 71  260/  6/  8   N/A           1
$$

ILZ025>027-034>036-040-047-049-050-058-095>099-020000-
WEST-CENTRAL ILLINOIS

CITY           SKY/WX    TMP DP  RH WIND       PRES   REMARKS
QUINCY         MOSUNNY   72  66  81 SE6       30.07S
JACKSONVILLE*  MOSUNNY   75  66  74 E6        30.09R
PITTSFIELD*    PTSUNNY   75  69  79 CALM      30.09R
$$

ILZ028>032-037-038-041>044-048-051>054-059>061-020000-
CENTRAL ILLINOIS

CITY           SKY/WX    TMP DP  RH WIND       PRES   REMARKS
DECATUR        CLOUDY    68  63  84 SW7       30.10S
PEORIA         LGT RAIN  67  62  84 S5        30.09R
SPRINGFIELD    MOSUNNY   74  63  68 S7        30.08F
TAYLORVILLE    NOT AVBL
$$

ILZ033-039-045-046-055>057-062-063-020000-
EAST-CENTRAL ILLINOIS

CITY           SKY/WX    TMP DP  RH WIND       PRES   REMARKS
CHAMPAIGN      CLOUDY    72  64  76 W3        30.09S
RANTOUL*       CLOUDY    73  61  66 N5        30.11S
MATTOON        LGT RAIN  67  65  93 NW15      30.09R FOG
$$

ILZ079-100>102-020000-
SOUTHWEST ILLINOIS

CITY           SKY/WX    TMP DP  RH WIND       PRES   REMARKS
ALTON          PTSUNNY   73  66  78 NE6       30.08R
BELLEVILLE     CLOUDY    74  65  74 NW7       30.06R
CAHOKIA*       LGT RAIN  76  70  82 N7        30.06R
$$

ILZ064>066-069>071-074>076-080>082-084>086-088>090-092>094-020000-
SOUTH-CENTRAL ILLINOIS

CITY           SKY/WX    TMP DP  RH WIND       PRES   REMARKS
CARBONDALE     SUNNY     84  60  44 CALM      30.03S HX  84
EFFINGHAM*     TSTM      64  58  82 SW12G28   30.13R VSB 3/4
MARION         PTSUNNY   82  64  54 NE7       30.04S HX  84
MT. VERNON     PTSUNNY   82  64  54 SE3       30.05S HX  84
CENTRALIA*     LGT RAIN  71  60  69 N9G24     30.08R
METROPOLIS*    PTSUNNY   84  54  35 CALM      30.02S HX  83
$$

ILZ067-068-072-073-078-083-087-091-020000-
SOUTHEAST ILLINOIS

CITY           SKY/WX    TMP DP  RH WIND       PRES   REMARKS
LAWRENCEVILLE  MOSUNNY   84  61  45 CALM      30.04S HX  84
CARMI*         SUNNY     82  64  54 CALM      30.03S HX  84
$$

ABBREVIATIONS USED IN REMARKS
   TC - TEMPERATURE IN CELSIUS
  WCI - WIND CHILL INDEX
   HX - HEAT INDEX
  VSB - VISIBILITY
$$




USA.gov is the U.S. government's official web portal to all federal, state and local government web resources and services.